Regional Weather Roundup
Issued by NWS

Home | Current Version | Previous Version | Text Only | Print | Product List | Glossary On
Versions: 1 2 3 4 5 6 7 8 9 10 11 12 13 14 15 16 17 18 19 20 21 22 23 24 25 26 27 28 29 30 31 32 33 34 35 36 37 38 39 40 41 42 43 44 45 46 47 48 49 50
000
ASUS44 KFWD 231803
RWRTX
NORTH TEXAS HOURLY WEATHER ROUNDUP
NATIONAL WEATHER SERVICE FORT WORTH TX
100 PM CDT TUE SEP 23 2014

NOTE: "FAIR" INDICATES FEW OR NO CLOUDS BELOW 12,000 FEET WITH NO
SIGNIFICANT WEATHER AND/OR OBSTRUCTIONS TO VISIBILITY.

TXZ118-119-231900-
DALLAS/FORT WORTH METROPLEX

CITY           SKY/WX    TMP DP  RH WIND       PRES   REMARKS
DFW AIRPORT    PTSUNNY   77  51  40 VRB7      30.18F
6HR MIN TEMP:  64; 6HR MAX TEMP:  78;

DALLAS LOVE    PTSUNNY   77  51  40 SE7       30.18F
6HR MIN TEMP:  64; 6HR MAX TEMP:  77;

FTW MEACHAM    MOSUNNY   80  52  37 SE7       30.17F
6HR MIN TEMP:  64; 6HR MAX TEMP:  82;

DAL-EXECUTIVE  MOSUNNY   80  50  34 VRB3      30.18F
6HR MIN TEMP:  62; 6HR MAX TEMP:  80;

FTW-ALLIANCE   MOSUNNY   78  51  38 SE7       30.18F
6HR MIN TEMP:  53; 6HR MAX TEMP:  79;

FTW-NAS-JRB    MOSUNNY   83  50  31 S5        30.22F
6HR MIN TEMP:  66; 6HR MAX TEMP:  83;

FTW-SPINKS     SUNNY     81  50  34 CALM      30.19F
ARLINGTON      MOSUNNY   80  50  34 SE6       30.18F
6HR MIN TEMP:  64; 6HR MAX TEMP:  80;

GRAND PRAIRIE  SUNNY     79  48  34 MISG      30.19F
MESQUITE       SUNNY     81  48  32 SW6       30.19F
LANCASTER      MOSUNNY   78  50  36 E6        30.20F
6HR MIN TEMP:  57; 6HR MAX TEMP:  78;

$$

TXZ091>094-102>105-117-120-121-131>134-231900-
NORTH CENTRAL TEXAS

CITY           SKY/WX    TMP DP  RH WIND       PRES   REMARKS
SHRMAN/DENISON SUNNY     76  52  41 E5        30.22S
6HR MIN TEMP:  56; 6HR MAX TEMP:  77;

GAINESVILLE    SUNNY     76  53  44 SE6       30.21F
6HR MIN TEMP:  55; 6HR MAX TEMP:  76;

BOWIE          SUNNY     78  52  39 SE7       30.19F
6HR MIN TEMP:  56; 6HR MAX TEMP:  79;

BRIDGEPORT     MOSUNNY   79  50  35 SE6       30.20F
6HR MIN TEMP:  54; 6HR MAX TEMP:  79;

DECATUR        MOSUNNY   77  50  38 SE6       30.20F
6HR MIN TEMP:  58; 6HR MAX TEMP:  77;

DENTON         SUNNY     77  49  37 SW5       30.19F
6HR MIN TEMP:  54; 6HR MAX TEMP:  79;

MCKINNEY       SUNNY     78  51  38 VRB3      30.19F
6HR MIN TEMP:  52; 6HR MAX TEMP:  78;

GREENVILLE     SUNNY     79  45  29 NE5       30.19F
ROCKWALL       SUNNY     78  52  39 CALM      30.18F
6HR MIN TEMP:  58; 6HR MAX TEMP:  79;

TERRELL        SUNNY     81  48  31 VRB5      30.18F
6HR MIN TEMP:  61; 6HR MAX TEMP:  81;

WAXAHACHIE     SUNNY     79  47  32 CALM      30.19F
6HR MIN TEMP:  57; 6HR MAX TEMP:  80;

CLEBURNE       SUNNY     81  52  36 E5        30.19F
GRANBURY       MOSUNNY   82  51  33 S3        30.18F
6HR MIN TEMP:  58; 6HR MAX TEMP:  82;

$$

TXZ083>090-098>101-113>116-127>130-139>142-154-155-231900-
WESTERN NORTH TEXAS

CITY           SKY/WX    TMP DP  RH WIND       PRES   REMARKS
WICHITA FALLS  MOSUNNY   79  54  41 SE8       30.16F
6HR MIN TEMP:  58; 6HR MAX TEMP:  80;

WF-KICKAPOO    SUNNY     80  50  34 SE8       30.17F
6HR MIN TEMP:  60; 6HR MAX TEMP:  80;

VERNON         SUNNY     81  52  36 S12       30.17F
6HR MIN TEMP:  60; 6HR MAX TEMP:  94;

ABILENE        MOSUNNY   84  60  44 S10       30.17F
6HR MIN TEMP:  65; 6HR MAX TEMP:  84;

ABILENE-DYESS  PTSUNNY   84  57  39 VRB6      30.16F
6HR MIN TEMP:  66; 6HR MAX TEMP:  84;

BRECKENRIDGE   PTSUNNY   83  55  37 S6        30.16F
6HR MIN TEMP:  64; 6HR MAX TEMP:  83;

MINERAL WELLS  MOSUNNY   80  50  34 SW8       30.17F
6HR MIN TEMP:  59; 6HR MAX TEMP:  80;

STEPHENVILLE   PTSUNNY   77  52  41 S7        30.21F
6HR MIN TEMP:  60; 6HR MAX TEMP:  77;

COMANCHE       MOSUNNY   82  53  35 SW5       30.18F
6HR MIN TEMP:  60; 6HR MAX TEMP:  84;

BROWNWOOD      MOSUNNY   81  57  44 S3        30.18F
COLEMAN        PTSUNNY   79  58  48 S5        30.19F
6HR MIN TEMP:  64; 6HR MAX TEMP:  79;

BRADY          SUNNY     79  61  53 VRB3      30.18F
$$

TXZ143>147-156>162-174-175-231900-
CENTRAL TEXAS

CITY           SKY/WX    TMP DP  RH WIND       PRES   REMARKS
WACO           SUNNY     81  51  35 E3        30.16F
6HR MIN TEMP:  57; 6HR MAX TEMP:  82;

WACO-TSTC      SUNNY     81  50  34 S3        30.17F
WACO-MCGREGOR  SUNNY     82  52  34 E6        30.17F
6HR MIN TEMP:  61; 6HR MAX TEMP:  82;

HILLSBORO      SUNNY     80  50  34 S3        30.18F
6HR MIN TEMP:  62; 6HR MAX TEMP:  81;

CORSICANA      SUNNY     79  51  37 CALM      30.19F
6HR MIN TEMP:  61; 6HR MAX TEMP:  81;

MEXIA          MOSUNNY   78  54  43 SE3       30.17F
6HR MIN TEMP:  58; 6HR MAX TEMP:  79;

HEARNE         SUNNY     80  55  42 NE8       30.16F
6HR MIN TEMP:  63; 6HR MAX TEMP:  80;

CAMERON        SUNNY     82  55  39 CALM      30.15F
6HR MIN TEMP:  60; 6HR MAX TEMP:  82;

TEMPLE         SUNNY     81  52  36 E6        30.16F
6HR MIN TEMP:  63; 6HR MAX TEMP:  81;

KILLEEN        PTSUNNY   82  54  36 VRB3      30.16F
KILLEEN-SKYLRK SUNNY     79  54  41 E7        30.16F
6HR MIN TEMP:  63; 6HR MAX TEMP:  81;

FORT HOOD      SUNNY     82  53  36 CALM      30.16F
6HR MIN TEMP:  64; 6HR MAX TEMP:  83;

HAMILTON       SUNNY     80  52  36 SE9G16    30.19F
6HR MIN TEMP:  60; 6HR MAX TEMP:  81;

LAMPASAS       SUNNY     79  58  49 E3        30.16F
6HR MIN TEMP:  62; 6HR MAX TEMP:  80;

$$

TXZ095>097-106>112-122>126-135>138-148>153-164>167-231900-
EAST TEXAS

CITY           SKY/WX    TMP DP  RH WIND       PRES   REMARKS
PARIS          SUNNY     73  52  46 E7        30.22F
6HR MIN TEMP:  55; 6HR MAX TEMP:  75;

SULPHUR SPRNGS SUNNY     78  49  35 SE6       30.22S
6HR MIN TEMP:  55; 6HR MAX TEMP:  78;

MOUNT PLEASANT SUNNY     76  50  39 N3        30.21F
6HR MIN TEMP:  53; 6HR MAX TEMP:  77;

GILMER         SUNNY     79  54  41 NE6       30.20F
MINEOLA        SUNNY     79  52  38 E3        30.20F
TYLER          SUNNY     79  53  40 E6        30.18F
6HR MIN TEMP:  58; 6HR MAX TEMP:  79;

LONGVIEW       SUNNY     80  50  34 VRB5      30.17F
6HR MIN TEMP:  55; 6HR MAX TEMP:  80;

MARSHALL       SUNNY     81  50  33 E5        30.19F
6HR MIN TEMP:  60; 6HR MAX TEMP:  81;

ATHENS         MOSUNNY   77  50  38 E6        30.17F
PALESTINE      PTSUNNY   76  56  48 E5        30.18F
JACKSONVILLE   FAIR      78  53  40 E3        30.20F
HENDERSON      SUNNY     78  51  38 E7        30.19F
6HR MIN TEMP:  54; 6HR MAX TEMP:  78;

NACOGDOCHES    MOSUNNY   79  54  41 S6        30.17F
6HR MIN TEMP:  57; 6HR MAX TEMP:  81;

LUFKIN         MOSUNNY   80  55  42 E8        30.17S
6HR MIN TEMP:  61; 6HR MAX TEMP:  81;

$$

SUPPLEMENTAL OBSERVATIONS (CENTRAL)

CITY           SKY/WX    TMP DP  RH WIND       PRES   REMARKS
$$

SUPPLEMENTAL OBSERVATIONS (WEST)

CITY           SKY/WX    TMP DP  RH WIND       PRES   REMARKS
$$

SUPPLEMENTAL OBSERVATIONS (EAST)

CITY           SKY/WX    TMP DP  RH WIND       PRES   REMARKS
$$

SUPPLEMENTAL OBSERVATIONS ARE A COLLECTION OF AUTOMATED INSTRUMENTS
THAT ARE MAINTAINED BY A VARIETY OF FEDERAL AND STATE AGENCIES.
CERTAIN ELEMENTS...SUCH AS HUMIDITY VALUES AND SUSTAINED WIND
SPEEDS...MAY BE APPROXIMATED.



USA.gov is the U.S. government's official web portal to all federal, state and local government web resources and services.